Weather Roundup
Issued by NWS Springfield, MO

Home | Current Version | Previous Version | Text Only | Print | Product List | Glossary On
Versions: 1 2 3 4 5 6 7 8 9 10 11 12 13 14 15 16 17 18 19 20 21 22 23 24 25 26 27 28 29 30 31 32 33 34 35 36 37 38 39 40 41 42 43 44 45 46 47 48 49 50
000
NZUS99 KSGF 010007
HRRSGF

HOURLY WEATHER
NATIONAL WEATHER SERVICE SPRINGFIELD MO
700 PM CDT THU JUL 31 2014

......SGF CWA......

CITY           SKY/WX    TMP DP  RH WIND       PRES   REMARKS
SPRINGFIELD    MOSUNNY   76  65  68 SW8       30.05F
6HR MIN TEMP:  76; 6HR MAX TEMP:  81;

JOPLIN         MOSUNNY   80  64  58 SE6       30.04F
6HR MIN TEMP:  77; 6HR MAX TEMP:  83;

WEST PLAINS    MOSUNNY   73  65  75 S5        30.08F
6HR MIN TEMP:  72; 6HR MAX TEMP:  77;

ROLLA          SUNNY     82  51  34 E5        30.03F
6HR MIN TEMP:  81; 6HR MAX TEMP:  85;

OSAGE BEACH      N/A     82  55  39 N3        30.03S
BRANSON        PTSUNNY   73  64  73 SE6       30.08F

......SURROUNDING SGF CWA......

CITY           SKY/WX    TMP DP  RH WIND       PRES   REMARKS
CHANUTE        SUNNY     81  59  47 SE3       30.05S
PARSONS        MOSUNNY   82  61  48 VRB3      30.05S
COFFEYVILLE    PTSUNNY   82  61  48 E6        30.03S
EMPORIA        SUNNY     81  53  37 E7        30.05S
GROVE OK       MOSUNNY   77  68  73 SE8       30.05F
ROGERS AR      CLOUDY    69  66  90 E3        30.08F
SILOAM SPRINGS CLOUDY    70  63  78 CALM      30.08S
HARRISON AR    CLOUDY    70  65  84 E6        30.08S
NEAR YELLVILLE CLOUDY    70  64  83 CALM      30.08R

......KANSAS AND MISSOURI......

CITY           SKY/WX    TMP DP  RH WIND       PRES   REMARKS
KANSAS CTY INT PTSUNNY   80  57  45 N3        30.05F
DOWNTOWN KC    SUNNY     82  56  40 NE7       30.03F
COLUMBIA       SUNNY     83  56  39 N7        30.05S
SEDALIA        SUNNY     79  59  50 N7        30.05F
ST JOSEPH      PTSUNNY   78  59  51 S5        30.04F
ST LOUIS       MOSUNNY   83  58  42 E8        30.04F
SPIRIT OF STL  MOSUNNY   83  56  39 NE8       30.02S
KIRKSVILLE     SUNNY     82  57  42 CALM      30.06F
WICHITA        MOSUNNY   83  52  34 NE6       30.05S
TOPEKA         SUNNY     85  55  35 E7        30.03F
OLATHE         SUNNY     80  57  45 SE6       30.04F

......TENNESSEE......

CITY           SKY/WX    TMP DP  RH WIND       PRES   REMARKS
MEMPHIS        CLOUDY    76  64  66 N6        30.06F
NASHVILLE      CLOUDY    82  55  39 NE5       30.06S

......ARKANSAS.......

CITY           SKY/WX    TMP DP  RH WIND       PRES   REMARKS
FAYETTEVILLE   CLOUDY    72  65  78 NE3       30.07S
FT SMITH       CLOUDY    72  65  78 E6        30.04F
LITTLE ROCK    CLOUDY    71  66  84 E5        30.06S

......OKLAHOMA.......

CITY           SKY/WX    TMP DP  RH WIND       PRES   REMARKS
TULSA          PTSUNNY   76  67  73 SE3       30.03F
PONCA CITY     SUNNY     80  62  54 NE5       30.04F
MCALESTER      CLOUDY    72  66  81 VRB5      30.04F
OKLAHOMA CITY  PTSUNNY   75  66  73 E9        30.05S

......IOWA............

CITY           SKY/WX    TMP DP  RH WIND       PRES   REMARKS
DES MOINES     CLOUDY    71  64  78 NW8       30.04S
QUAD CITIES    MOSUNNY   79  61  53 SW6       30.02F

......ILLINOIS........

CITY           SKY/WX    TMP DP  RH WIND       PRES   REMARKS
QUINCY         SUNNY     78  58  49 CALM      30.05F
CHICAGO        MOSUNNY   80  55  42 W12       30.01S




USA.gov is the U.S. government's official web portal to all federal, state and local government web resources and services.